Regional Weather Roundup
Issued by NWS State College, PA

Home | Current Version | Previous Version | Text Only | Print | Product List | Glossary On
Versions: 1 2 3 4 5 6 7 8 9 10 11 12 13 14 15 16 17 18 19 20 21 22 23 24 25 26 27 28 29 30 31 32 33 34 35 36 37 38 39 40 41 42 43 44 45 46 47 48 49 50
000
ASUS41 KCTP 261810
RWRCTP

REGIONAL WEATHER ROUNDUP
NATIONAL WEATHER SERVICE STATE COLLEGE PA
200 PM EDT TUE SEP 26 2017

Note: "fair" indicates few or no clouds below 12,000 feet with no
significant weather and/or obstructions to visibility.

* = STATION THAT DOES NOT REPORT PRECIPITATION /E.G. RAIN...SNOW...ETC/
    THUNDER OR FOG.

PAZ002>004-007>009-013>016-020>023-029>032-261900-
WESTERN PENNSYLVANIA

CITY           SKY/WX    TMP DP  RH WIND       PRES   REMARKS
ERIE           SUNNY     84  64  50 NW8       30.00F
MEADVILLE      MOSUNNY   83  65  54 W3        30.04F
FRANKLIN*      MOSUNNY   82  66  57 E5        30.06F
NEW CASTLE     MOCLDY    87  65  47 CALM      30.03F
BEAVER COUNTY  PTSUNNY   90  63  40 W3        30.04F
BUTLER*        SUNNY     85  66  53 VRB3      30.04F
PITTSBURGH INT MOSUNNY   86  63  45 S3        30.03F
PITTSBURGH     MOSUNNY   85  63  47 SE3       30.03F
INDIANA*       SUNNY     82  66  57 CALM      30.08F
LATROBE        MOSUNNY   84  64  51 VRB5      30.04F
WASHINGTON CO*   N/A    N/A N/A N/A MISG        N/A
$$

PAZ004>006-010>012-017>019-024>028-033>037-041-042-045-046-049>053-261900-
CENTRAL PENNSYLVANIA

CITY           SKY/WX    TMP DP  RH WIND       PRES   REMARKS
BRADFORD       MOSUNNY   82  64  54 CALM      30.08F
DUBOIS         MOSUNNY   83  63  50 NW3       30.06F
CLEARFIELD     MOSUNNY   85  64  49 E6        30.06F
JOHNSTOWN      PTSUNNY   83  63  50 CALM      30.08F
ALTOONA        MOSUNNY   83  64  52 CALM      30.06F
STATE COLLEGE  MOSUNNY   84  68  58 CALM      30.04F
WILLIAMSPORT   MOSUNNY   88  69  53 SE5       29.98F
SELINSGROVE    SUNNY     86  70  58 W3        30.00F
FT INDIANTOWN  PTSUNNY   84  69  58 E3        30.00F
CAPITAL CITY   MOSUNNY   86  66  51 E5        29.99F
HARRISBURG     MOSUNNY   87  69  54 S5        29.98F
YORK           MOSUNNY   83  68  60 NE9       30.00F
$$

PAZ038>040-043-044-047-048-054-055-060>062-067>071-261900-
EASTERN PENNSYLVANIA

CITY           SKY/WX    TMP DP  RH WIND       PRES   REMARKS
SCRANTON       SUNNY     88  66  48 VRB3      30.01F
MOUNT POCONO   SUNNY     81  67  62 MISG      30.08F
ALLENTOWN      MOSUNNY   86  67  52 VRB3      30.00F
QUAKERTOWN*    MOCLDY    82  68  61 E6        30.02F
READING        MOSUNNY   84  70  62 VRB6      29.99F
LANCASTER      CLOUDY    82  69  64 E10       30.00F
COATESVILLE    PTCLDY    82  64  54 E10G22    30.02F
POTTSTOWN      NOT AVBL
BLUE BELL      PTSUNNY   81  66  61 E7        30.01F
DOYLESTOWN     PTSUNNY   84  67  56 NE8G17    30.00F
WILLOW GROVE   NOT AVBL
NORTH PHILA    PTSUNNY   82  67  60 E8        30.02F
PHILADELPHIA   PTSUNNY   83  68  60 NE8       29.99F
$$




USA.gov is the U.S. government's official web portal to all federal, state and local government web resources and services.